AVA8428 SKBO-SKRH

Flight info

Callsign AVA8428
Flight time 1h 7m
Altitude 34000
Route DANSA4R GIKPU UQ120 YACAR/N0462F360 UQ120 DIBAM/N0465F350 DCT VUP VUP1T
Aircraft A320/M-SDE3FGHIRWY/LB1

Departure

Time 2026-05-05 03:29
Airport El Dorado International Airport (SKBO)

Arrival

Time 2026-05-05 04:36
Airport Almirante Padilla Airport (SKRH)
Time Latitude Longitude Altitude Speed Heading
2026-05-05 02:21 4.69787 -74.14542 8375 ft 0 kts 37°
2026-05-05 03:13 4.69783 -74.14544 8375 ft 2 kts 36°
2026-05-05 03:13 4.69768 -74.14555 8375 ft 3 kts 29°
2026-05-05 03:13 4.69750 -74.14563 8375 ft 3 kts
2026-05-05 03:14 4.69733 -74.14562 8375 ft 2 kts 316°
2026-05-05 03:14 4.69729 -74.14559 8375 ft 0 kts 307°
2026-05-05 03:19 4.69732 -74.14563 8375 ft 2 kts 307°
2026-05-05 03:19 4.69743 -74.14578 8375 ft 4 kts 307°
2026-05-05 03:20 4.69762 -74.14604 8375 ft 5 kts 306°
2026-05-05 03:20 4.69789 -74.14640 8375 ft 7 kts 307°
2026-05-05 03:20 4.69824 -74.14687 8375 ft 9 kts 307°
2026-05-05 03:20 4.69864 -74.14740 8375 ft 9 kts 307°
2026-05-05 03:21 4.69900 -74.14788 8375 ft 8 kts 308°
2026-05-05 03:21 4.69947 -74.14785 8375 ft 7 kts 32°
2026-05-05 03:21 4.69983 -74.14759 8375 ft 6 kts 34°
2026-05-05 03:21 4.70013 -74.14738 8375 ft 5 kts 34°
2026-05-05 03:22 4.70042 -74.14717 8375 ft 6 kts 37°
2026-05-05 03:22 4.70086 -74.14685 8375 ft 9 kts 36°
2026-05-05 03:22 4.70143 -74.14644 8375 ft 10 kts 36°
2026-05-05 03:22 4.70195 -74.14605 8375 ft 9 kts 36°
2026-05-05 03:23 4.70243 -74.14571 8375 ft 9 kts 36°
2026-05-05 03:23 4.70301 -74.14528 8375 ft 12 kts 36°
2026-05-05 03:23 4.70376 -74.14474 8375 ft 15 kts 36°
2026-05-05 03:23 4.70441 -74.14427 8375 ft 11 kts 36°
2026-05-05 03:24 4.70508 -74.14439 8375 ft 12 kts 307°
2026-05-05 03:24 4.70566 -74.14516 8375 ft 15 kts 307°
2026-05-05 03:24 4.70636 -74.14609 8375 ft 18 kts 307°
2026-05-05 03:24 4.70718 -74.14718 8375 ft 21 kts 305°
2026-05-05 03:25 4.70802 -74.14833 8375 ft 20 kts 307°
2026-05-05 03:25 4.70883 -74.14940 8375 ft 19 kts 308°
2026-05-05 03:25 4.70959 -74.15041 8375 ft 18 kts 307°
2026-05-05 03:25 4.71030 -74.15136 8375 ft 16 kts 307°
2026-05-05 03:26 4.71094 -74.15222 8375 ft 13 kts 307°
2026-05-05 03:26 4.71142 -74.15251 8375 ft 7 kts 348°
2026-05-05 03:26 4.71186 -74.15259 8375 ft 6 kts 352°
2026-05-05 03:26 4.71223 -74.15264 8375 ft 5 kts 352°
2026-05-05 03:27 4.71252 -74.15267 8375 ft 4 kts 355°
2026-05-05 03:27 4.71276 -74.15265 8375 ft 4 kts 22°
2026-05-05 03:27 4.71306 -74.15247 8375 ft 6 kts 42°
2026-05-05 03:27 4.71326 -74.15205 8375 ft 8 kts 99°
2026-05-05 03:28 4.71315 -74.15186 8375 ft 1 kts 128°
2026-05-05 03:28 4.71240 -74.15088 8375 ft 46 kts 127°
2026-05-05 03:28 4.70932 -74.14679 8375 ft 101 kts 127°
2026-05-05 03:28 4.70412 -74.13984 8375 ft 146 kts 126°
2026-05-05 03:29 4.69725 -74.13067 8378 ft 181 kts 128°
2026-05-05 03:29 4.68979 -74.12084 8821 ft 172 kts 128°
2026-05-05 03:29 4.68306 -74.11099 9266 ft 172 kts 117°
2026-05-05 03:29 4.68068 -74.09917 9514 ft 178 kts 86°
2026-05-05 03:30 4.68534 -74.08755 9719 ft 188 kts 51°
2026-05-05 03:30 4.69640 -74.08038 9996 ft 195 kts 17°
2026-05-05 03:30 4.71040 -74.07890 10125 ft 210 kts
2026-05-05 03:30 4.72558 -74.07694 10179 ft 229 kts
2026-05-05 03:31 4.74213 -74.07403 10250 ft 253 kts 11°
2026-05-05 03:31 4.75918 -74.07064 11010 ft 244 kts 12°
2026-05-05 03:31 4.77559 -74.06717 11782 ft 242 kts 13°
2026-05-05 03:31 4.79229 -74.06259 12063 ft 260 kts 19°
2026-05-05 03:32 4.81040 -74.05668 12171 ft 288 kts 19°
2026-05-05 03:32 4.83034 -74.05007 12263 ft 316 kts 19°
2026-05-05 03:32 4.85199 -74.04281 12346 ft 340 kts 19°
2026-05-05 03:32 4.87515 -74.03501 12441 ft 362 kts 19°
2026-05-05 03:33 4.89952 -74.02681 12746 ft 375 kts 19°
2026-05-05 03:33 4.92435 -74.01844 13423 ft 377 kts 19°
2026-05-05 03:33 4.94934 -74.01000 14006 ft 382 kts 20°
2026-05-05 03:33 4.97457 -74.00147 14620 ft 384 kts 20°
2026-05-05 03:34 5.00003 -73.99286 15215 ft 387 kts 20°
2026-05-05 03:34 5.02591 -73.98484 15771 ft 391 kts 16°
2026-05-05 03:34 5.05245 -73.97812 16296 ft 395 kts 15°
2026-05-05 03:34 5.07917 -73.97148 16834 ft 398 kts 15°
2026-05-05 03:35 5.10615 -73.96479 17331 ft 401 kts 15°
2026-05-05 03:35 5.12418 -73.96030 17649 ft 403 kts 15°
2026-05-05 03:35 5.15940 -73.95156 18273 ft 407 kts 16°
2026-05-05 03:35 5.18699 -73.94470 18751 ft 410 kts 16°
2026-05-05 03:36 5.21479 -73.93776 19185 ft 413 kts 15°
2026-05-05 03:36 5.24278 -73.93079 19694 ft 415 kts 15°
2026-05-05 03:36 5.27086 -73.92379 20115 ft 418 kts 15°
2026-05-05 03:36 5.29924 -73.91672 20530 ft 422 kts 15°
2026-05-05 03:37 5.31810 -73.91202 20924 ft 421 kts 15°
2026-05-05 03:37 5.34666 -73.90491 21270 ft 426 kts 15°
2026-05-05 03:37 5.38501 -73.89535 21871 ft 429 kts 15°
2026-05-05 03:37 5.41400 -73.88813 22259 ft 432 kts 15°
2026-05-05 03:38 5.44330 -73.88084 22673 ft 434 kts 15°
2026-05-05 03:38 5.47274 -73.87351 23086 ft 437 kts 15°
2026-05-05 03:38 5.50225 -73.86618 23516 ft 438 kts 15°
2026-05-05 03:38 5.52234 -73.86117 23764 ft 441 kts 14°
2026-05-05 03:39 5.55241 -73.85450 24092 ft 444 kts 12°
2026-05-05 03:39 5.58278 -73.84823 24430 ft 446 kts 12°
2026-05-05 03:39 5.61288 -73.84204 24689 ft 449 kts 12°
2026-05-05 03:39 5.64396 -73.83566 25016 ft 451 kts 12°
2026-05-05 03:40 5.67441 -73.82940 25240 ft 453 kts 12°
2026-05-05 03:40 5.70581 -73.82295 25497 ft 456 kts 12°
2026-05-05 03:40 5.73651 -73.81663 25787 ft 458 kts 12°
2026-05-05 03:40 5.76785 -73.81019 26044 ft 460 kts 12°
2026-05-05 03:41 5.79924 -73.80373 26308 ft 462 kts 12°
2026-05-05 03:41 5.83081 -73.79724 26564 ft 464 kts 12°
2026-05-05 03:41 5.86249 -73.79072 26801 ft 466 kts 12°
2026-05-05 03:41 5.89428 -73.78416 27099 ft 467 kts 12°
2026-05-05 03:42 5.92619 -73.77757 27333 ft 469 kts 12°
2026-05-05 03:42 5.95825 -73.77095 27587 ft 471 kts 12°
2026-05-05 03:42 5.99044 -73.76428 27766 ft 474 kts 13°
2026-05-05 03:42 6.02272 -73.75764 28027 ft 474 kts 12°
2026-05-05 03:43 6.05520 -73.75096 28177 ft 478 kts 12°
2026-05-05 03:43 6.08785 -73.74425 28370 ft 480 kts 12°
2026-05-05 03:43 6.12054 -73.73752 28658 ft 479 kts 12°
2026-05-05 03:43 6.15320 -73.73079 28993 ft 478 kts 12°
2026-05-05 03:44 6.18581 -73.72408 29245 ft 479 kts 12°
2026-05-05 03:44 6.21843 -73.71737 29522 ft 478 kts 13°
2026-05-05 03:44 6.25105 -73.71066 29784 ft 478 kts 12°
2026-05-05 03:44 6.28364 -73.70395 30036 ft 478 kts 12°
2026-05-05 03:45 6.31614 -73.69726 30311 ft 477 kts 12°
2026-05-05 03:45 6.34868 -73.69056 30604 ft 476 kts 12°
2026-05-05 03:45 6.38109 -73.68389 30872 ft 475 kts 12°
2026-05-05 03:45 6.41346 -73.67722 31136 ft 474 kts 12°
2026-05-05 03:46 6.44577 -73.67056 31414 ft 473 kts 12°
2026-05-05 03:46 6.47802 -73.66392 31679 ft 472 kts 12°
2026-05-05 03:46 6.50976 -73.65737 31923 ft 472 kts 12°
2026-05-05 03:46 6.54191 -73.65073 32159 ft 471 kts 12°
2026-05-05 03:47 6.57403 -73.64411 32402 ft 471 kts 12°
2026-05-05 03:47 6.60609 -73.63750 32641 ft 470 kts 12°
2026-05-05 03:47 6.63809 -73.63090 32877 ft 469 kts 12°
2026-05-05 03:47 6.67008 -73.62430 33096 ft 469 kts 12°
2026-05-05 03:48 6.70209 -73.61769 33306 ft 469 kts 12°
2026-05-05 03:48 6.73395 -73.61112 33522 ft 468 kts 12°
2026-05-05 03:48 6.76595 -73.60451 33736 ft 468 kts 12°
2026-05-05 03:48 6.79787 -73.59793 33901 ft 469 kts 12°
2026-05-05 03:49 6.86202 -73.58468 33959 ft 469 kts 12°
2026-05-05 03:49 6.92544 -73.57159 33960 ft 469 kts 12°
2026-05-05 03:50 6.98959 -73.55967 34062 ft 472 kts
2026-05-05 03:50 7.02257 -73.55964 34172 ft 474 kts 358°
2026-05-05 03:50 7.05553 -73.56108 34359 ft 474 kts 358°
2026-05-05 03:51 7.08848 -73.56260 34544 ft 474 kts 358°
2026-05-05 03:51 7.12136 -73.56414 34722 ft 473 kts 358°
2026-05-05 03:51 7.15428 -73.56570 34898 ft 473 kts 358°
2026-05-05 03:51 7.18714 -73.56728 35075 ft 473 kts 358°
2026-05-05 03:52 7.22005 -73.56888 35252 ft 473 kts 358°
2026-05-05 03:52 7.25291 -73.57050 35425 ft 473 kts 358°
2026-05-05 03:52 7.28582 -73.57212 35596 ft 472 kts 358°
2026-05-05 03:52 7.31864 -73.57376 35735 ft 473 kts 358°
2026-05-05 03:53 7.35152 -73.57540 35880 ft 474 kts 357°
2026-05-05 03:53 7.38457 -73.57706 35964 ft 475 kts 357°
2026-05-05 03:53 7.45048 -73.58040 35994 ft 473 kts 357°
2026-05-05 03:54 7.51591 -73.58373 35999 ft 473 kts 357°
2026-05-05 03:54 7.58170 -73.58710 36001 ft 473 kts 357°
2026-05-05 03:55 7.64749 -73.59048 36002 ft 473 kts 357°
2026-05-05 03:55 7.71333 -73.59387 36003 ft 473 kts 357°
2026-05-05 03:56 7.77914 -73.59727 36004 ft 473 kts 357°
2026-05-05 03:56 7.84493 -73.60068 36004 ft 473 kts 357°
2026-05-05 03:57 7.91090 -73.60410 36004 ft 475 kts 357°
2026-05-05 03:57 7.97678 -73.60753 35995 ft 474 kts 357°
2026-05-05 03:58 8.04252 -73.61092 35992 ft 473 kts 357°
2026-05-05 03:58 8.10854 -73.61435 35990 ft 475 kts 357°
2026-05-05 03:59 8.17416 -73.61776 35962 ft 475 kts 357°
2026-05-05 03:59 8.23986 -73.61388 35958 ft 474 kts
2026-05-05 04:00 8.30508 -73.60387 35956 ft 474 kts
2026-05-05 04:00 8.37025 -73.59334 35957 ft 474 kts
2026-05-05 04:01 8.43551 -73.58267 35957 ft 474 kts
2026-05-05 04:01 8.50070 -73.57197 35958 ft 474 kts
2026-05-05 04:02 8.56591 -73.56124 35957 ft 474 kts
2026-05-05 04:02 8.63106 -73.55051 35957 ft 474 kts
2026-05-05 04:03 8.69583 -73.53983 35956 ft 473 kts
2026-05-05 04:03 8.76083 -73.52910 35955 ft 474 kts
2026-05-05 04:04 8.82594 -73.51835 35954 ft 474 kts
2026-05-05 04:04 8.89098 -73.50759 35953 ft 474 kts
2026-05-05 04:05 8.95607 -73.49683 35952 ft 474 kts
2026-05-05 04:05 9.02114 -73.48606 35951 ft 474 kts
2026-05-05 04:06 9.08628 -73.47528 35950 ft 474 kts
2026-05-05 04:06 9.15125 -73.46451 35948 ft 472 kts
2026-05-05 04:07 9.21583 -73.45381 35947 ft 473 kts
2026-05-05 04:07 9.28079 -73.44305 35946 ft 473 kts
2026-05-05 04:08 9.34578 -73.43227 35944 ft 473 kts
2026-05-05 04:08 9.41073 -73.42149 35937 ft 474 kts
2026-05-05 04:09 9.47587 -73.41068 35935 ft 474 kts
2026-05-05 04:09 9.54087 -73.39989 35883 ft 473 kts
2026-05-05 04:10 9.57342 -73.39449 35014 ft 478 kts
2026-05-05 04:10 9.60649 -73.38898 34211 ft 481 kts
2026-05-05 04:10 9.63954 -73.38348 33374 ft 483 kts
2026-05-05 04:10 9.67266 -73.37798 32603 ft 483 kts
2026-05-05 04:11 9.70585 -73.37247 31772 ft 484 kts
2026-05-05 04:11 9.73922 -73.36692 30900 ft 485 kts
2026-05-05 04:11 9.77240 -73.36141 29970 ft 480 kts
2026-05-05 04:11 9.80485 -73.35601 29382 ft 465 kts
2026-05-05 04:12 9.83623 -73.35079 28872 ft 449 kts
2026-05-05 04:12 9.86657 -73.34575 28378 ft 435 kts
2026-05-05 04:12 9.89582 -73.34087 27908 ft 430 kts
2026-05-05 04:12 9.92527 -73.33597 27432 ft 427 kts
2026-05-05 04:13 9.95476 -73.33106 26958 ft 423 kts
2026-05-05 04:13 9.98333 -73.32629 26500 ft 419 kts
2026-05-05 04:13 10.01193 -73.32152 26044 ft 415 kts
2026-05-05 04:13 10.04036 -73.31678 25593 ft 411 kts
2026-05-05 04:14 10.06852 -73.31209 25147 ft 408 kts
2026-05-05 04:14 10.09643 -73.30743 24707 ft 405 kts
2026-05-05 04:14 10.12412 -73.30281 24272 ft 402 kts
2026-05-05 04:14 10.15158 -73.29823 23841 ft 399 kts
2026-05-05 04:15 10.17894 -73.29367 23415 ft 396 kts
2026-05-05 04:15 10.20612 -73.28913 22993 ft 394 kts
2026-05-05 04:15 10.23275 -73.28469 22581 ft 392 kts 10°
2026-05-05 04:15 10.25963 -73.28020 22166 ft 390 kts 10°
2026-05-05 04:16 10.28633 -73.27575 21756 ft 387 kts 10°
2026-05-05 04:16 10.31289 -73.27132 21349 ft 385 kts 10°
2026-05-05 04:16 10.33922 -73.26692 20947 ft 383 kts 10°
2026-05-05 04:16 10.36548 -73.26254 20547 ft 381 kts 10°
2026-05-05 04:17 10.39153 -73.25819 20151 ft 379 kts 11°
2026-05-05 04:17 10.41749 -73.25385 19758 ft 377 kts 11°
2026-05-05 04:17 10.44329 -73.24937 19367 ft 375 kts 13°
2026-05-05 04:17 10.46825 -73.24234 18984 ft 371 kts 21°
2026-05-05 04:18 10.49186 -73.23192 18606 ft 368 kts 27°
2026-05-05 04:18 10.51482 -73.22041 18225 ft 366 kts 28°
2026-05-05 04:18 10.53758 -73.20886 17847 ft 365 kts 28°
2026-05-05 04:18 10.56027 -73.19724 17464 ft 363 kts 28°
2026-05-05 04:19 10.58273 -73.18567 17156 ft 362 kts 28°
2026-05-05 04:19 10.60511 -73.17410 16783 ft 361 kts 28°
2026-05-05 04:19 10.62747 -73.16251 16411 ft 360 kts 28°
2026-05-05 04:19 10.64974 -73.15095 16040 ft 359 kts 29°
2026-05-05 04:20 10.67195 -73.13940 15670 ft 358 kts 29°
2026-05-05 04:20 10.69408 -73.12789 15301 ft 357 kts 29°
2026-05-05 04:20 10.71590 -73.11653 14992 ft 355 kts 29°
2026-05-05 04:20 10.73782 -73.10511 14604 ft 355 kts 29°
2026-05-05 04:21 10.75991 -73.09359 14195 ft 355 kts 29°
2026-05-05 04:21 10.78190 -73.08211 13825 ft 354 kts 29°
2026-05-05 04:21 10.80378 -73.07070 13453 ft 352 kts 29°
2026-05-05 04:21 10.82526 -73.05949 13088 ft 351 kts 29°
2026-05-05 04:22 10.84693 -73.04819 12718 ft 349 kts 29°
2026-05-05 04:22 10.86843 -73.03698 12348 ft 347 kts 29°
2026-05-05 04:22 10.88987 -73.02578 11978 ft 344 kts 29°
2026-05-05 04:22 10.91110 -73.01469 11609 ft 342 kts 29°
2026-05-05 04:23 10.93218 -73.00368 11239 ft 339 kts 29°
2026-05-05 04:23 10.95309 -72.99276 10899 ft 335 kts 29°
2026-05-05 04:23 10.97349 -72.98211 10779 ft 320 kts 29°
2026-05-05 04:23 10.99279 -72.97203 10596 ft 303 kts 29°
2026-05-05 04:24 11.01104 -72.96249 10516 ft 288 kts 30°
2026-05-05 04:24 11.02859 -72.95331 10436 ft 281 kts 30°
2026-05-05 04:24 11.04593 -72.94423 10360 ft 280 kts 30°
2026-05-05 04:25 11.07480 -72.92908 10098 ft 285 kts 30°
2026-05-05 04:25 11.09891 -72.91629 9745 ft 298 kts 30°
2026-05-05 04:25 11.11702 -72.90671 9400 ft 295 kts 30°
2026-05-05 04:25 11.13513 -72.89714 9107 ft 291 kts 30°
2026-05-05 04:26 11.15309 -72.88763 8829 ft 290 kts 30°
2026-05-05 04:26 11.17091 -72.87820 8554 ft 288 kts 30°
2026-05-05 04:26 11.18865 -72.86880 8279 ft 287 kts 30°
2026-05-05 04:26 11.20633 -72.85944 8006 ft 285 kts 30°
2026-05-05 04:27 11.21796 -72.85328 7839 ft 283 kts 30°
2026-05-05 04:27 11.23504 -72.84424 7727 ft 269 kts 30°
2026-05-05 04:27 11.25114 -72.83573 7570 ft 254 kts 30°
2026-05-05 04:27 11.26649 -72.82759 7419 ft 242 kts 30°
2026-05-05 04:28 11.28105 -72.81989 7270 ft 228 kts 30°
2026-05-05 04:28 11.29471 -72.81265 7113 ft 220 kts 30°
2026-05-05 04:28 11.30819 -72.80549 6659 ft 217 kts 30°
2026-05-05 04:28 11.32149 -72.79843 6173 ft 212 kts 30°
2026-05-05 04:29 11.33445 -72.79155 5935 ft 210 kts 30°
2026-05-05 04:29 11.34743 -72.78467 5730 ft 209 kts 30°
2026-05-05 04:29 11.36028 -72.77785 5530 ft 208 kts 30°
2026-05-05 04:29 11.37307 -72.77107 5333 ft 206 kts 30°
2026-05-05 04:30 11.38575 -72.76435 5136 ft 205 kts 30°
2026-05-05 04:30 11.39840 -72.75764 4943 ft 205 kts 30°
2026-05-05 04:30 11.41079 -72.75107 4752 ft 203 kts 30°
2026-05-05 04:30 11.42359 -72.74464 4549 ft 203 kts 24°
2026-05-05 04:31 11.43737 -72.74179 4308 ft 209 kts
2026-05-05 04:31 11.45185 -72.74186 4053 ft 207 kts
2026-05-05 04:31 11.46622 -72.74208 3848 ft 206 kts
2026-05-05 04:31 11.48054 -72.74240 3654 ft 206 kts
2026-05-05 04:32 11.49451 -72.74280 3481 ft 193 kts
2026-05-05 04:32 11.50736 -72.74321 3264 ft 177 kts
2026-05-05 04:32 11.51882 -72.74631 3028 ft 168 kts 336°
2026-05-05 04:32 11.52701 -72.75488 2984 ft 175 kts 302°
2026-05-05 04:33 11.52917 -72.76696 3001 ft 178 kts 272°
2026-05-05 04:33 11.52933 -72.77963 3013 ft 179 kts 272°
2026-05-05 04:33 11.52935 -72.79228 2993 ft 179 kts 271°
2026-05-05 04:33 11.52922 -72.80497 2990 ft 178 kts 270°
2026-05-05 04:34 11.52899 -72.81760 2987 ft 179 kts 270°
2026-05-05 04:34 11.52870 -72.83030 2943 ft 181 kts 269°
2026-05-05 04:34 11.52839 -72.84298 2580 ft 177 kts 269°
2026-05-05 04:34 11.52809 -72.85576 1777 ft 188 kts 269°
2026-05-05 04:35 11.52774 -72.86922 1211 ft 180 kts 268°
2026-05-05 04:35 11.52731 -72.88123 898 ft 161 kts 268°
2026-05-05 04:35 11.52722 -72.89240 592 ft 158 kts 268°
2026-05-05 04:35 11.52683 -72.90350 368 ft 156 kts 266°
2026-05-05 04:36 11.52653 -72.91461 175 ft 157 kts 267°
2026-05-05 04:36 11.52620 -72.92504 58 ft 115 kts 266°
2026-05-05 04:36 11.52606 -72.93010 58 ft 27 kts 267°